Location: ??
(34.9170°N, 135.5016°E)
Time: 01:02:02
(UTC+00:00)

RS-15 - Pass Details

Date: 29 April 2021
Orbit: 1888 x 2157 km, 64.8° (Epoch: 12 May)

Event Time Altitude Azimuth Distance (km) Brightness Sun altitude
Rises 14:05:33 0° 327° (NNW) 5,487 11.2 -39.0°
Reaches altitude 10° 14:10:46 10° 345° (NNW) 4,536 10.6 -39.3°
Maximum altitude 14:18:18 18° 26° (NNE) 3,950 10.0 -39.7°
Drops below altitude 10° 14:25:58 10° 66° (ENE) 4,646 10.1 -39.9°
Sets 14:31:21 0° 84° (E) 5,669 10.5 -40.1°
